PGT1985 LTFJ-LTFM

Flight info

Callsign PGT1985
Flight time N/A
Altitude 28000
Route IVGUS Y226 BIG N604 INBET
Aircraft A320/M-SDE3FGHIRWY/LB1

Departure

Time 2026-04-27 14:33
Airport Istanbul Sabiha Gökçen International Airport (LTFJ)

Arrival

Time N/A
Airport İstanbul Airport (LTFM)
Time Latitude Longitude Altitude Speed Heading
2026-04-27 13:57 40.90639 29.31741 321 ft 0 kts 334°
2026-04-27 14:23 40.90625 29.31750 321 ft 2 kts 334°
2026-04-27 14:24 40.90610 29.31760 320 ft 2 kts 334°
2026-04-27 14:24 40.90595 29.31770 319 ft 2 kts 334°
2026-04-27 14:24 40.90580 29.31783 321 ft 3 kts 302°
2026-04-27 14:24 40.90573 29.31805 321 ft 3 kts 265°
2026-04-27 14:25 40.90578 29.31827 321 ft 1 kts 234°
2026-04-27 14:25 40.90589 29.31843 317 ft 3 kts 227°
2026-04-27 14:25 40.90601 29.31860 320 ft 3 kts 246°
2026-04-27 14:25 40.90603 29.31864 318 ft 0 kts 252°
2026-04-27 14:28 40.90600 29.31853 320 ft 12 kts 251°
2026-04-27 14:28 40.90531 29.31669 321 ft 25 kts 245°
2026-04-27 14:28 40.90451 29.31464 321 ft 25 kts 229°
2026-04-27 14:29 40.90300 29.31500 320 ft 23 kts 182°
2026-04-27 14:29 40.90219 29.31337 320 ft 22 kts 244°
2026-04-27 14:29 40.90148 29.31149 320 ft 24 kts 243°
2026-04-27 14:29 40.90072 29.30946 320 ft 25 kts 244°
2026-04-27 14:30 40.89993 29.30731 319 ft 27 kts 244°
2026-04-27 14:30 40.89911 29.30507 320 ft 28 kts 244°
2026-04-27 14:30 40.89826 29.30274 320 ft 29 kts 243°
2026-04-27 14:30 40.89736 29.30034 318 ft 30 kts 243°
2026-04-27 14:31 40.89645 29.29785 320 ft 30 kts 244°
2026-04-27 14:31 40.89549 29.29534 320 ft 31 kts 245°
2026-04-27 14:31 40.89462 29.29297 320 ft 21 kts 239°
2026-04-27 14:31 40.89342 29.29288 317 ft 18 kts 156°
2026-04-27 14:32 40.89280 29.29337 313 ft 6 kts 119°
2026-04-27 14:32 40.89283 29.29379 311 ft 4 kts 75°
2026-04-27 14:32 40.89366 29.29589 313 ft 62 kts 63°
2026-04-27 14:32 40.89692 29.30467 312 ft 146 kts 64°
2026-04-27 14:33 40.90193 29.31852 743 ft 176 kts 63°
2026-04-27 14:33 40.90733 29.33310 1725 ft 177 kts 64°
2026-04-27 14:33 40.91251 29.34715 2760 ft 160 kts 64°
2026-04-27 14:33 40.91707 29.35951 3665 ft 145 kts 63°
2026-04-27 14:34 40.92163 29.37183 4103 ft 159 kts 64°
2026-04-27 14:34 40.92680 29.38586 4445 ft 181 kts 64°
2026-04-27 14:34 40.93252 29.40185 4777 ft 204 kts 69°
2026-04-27 14:34 40.93298 29.42120 5063 ft 227 kts 111°
2026-04-27 14:35 40.92272 29.43815 5449 ft 252 kts 144°
2026-04-27 14:35 40.90705 29.45043 6024 ft 270 kts 154°
2026-04-27 14:35 40.88969 29.46094 6620 ft 278 kts 158°
2026-04-27 14:35 40.87186 29.47095 6771 ft 278 kts 157°
2026-04-27 14:36 40.85385 29.48011 6799 ft 277 kts 168°
2026-04-27 14:36 40.83480 29.48015 6799 ft 275 kts 194°
2026-04-27 14:36 40.81772 29.46853 7239 ft 282 kts 221°
2026-04-27 14:36 40.80352 29.45131 8277 ft 281 kts 223°
2026-04-27 14:37 40.78904 29.43381 9191 ft 284 kts 223°
2026-04-27 14:37 40.77427 29.41605 9613 ft 288 kts 223°
2026-04-27 14:37 40.75946 29.39826 9763 ft 288 kts 223°
2026-04-27 14:37 40.74464 29.38046 9808 ft 295 kts 223°
2026-04-27 14:38 40.72998 29.35931 9809 ft 330 kts 234°
2026-04-27 14:38 40.71836 29.33194 9800 ft 351 kts 248°
2026-04-27 14:38 40.71197 29.30066 9805 ft 356 kts 262°
2026-04-27 14:38 40.71144 29.26811 9798 ft 356 kts 276°
2026-04-27 14:39 40.71674 29.23628 9799 ft 357 kts 288°
2026-04-27 14:39 40.72436 29.20508 9804 ft 357 kts 288°